[[{"header":{"parameterUnit":"m.s-1","parameterCategory":1,"la1":30.2991,"la2":30.254,"lo1":-89.0895,"lo2":-89.0444,"dy":0.0017,"dx":0.0017,"nx":28,"ny":28,"refTime":"2026-02-03T09:00:00:Z","depth":0,"parameterNumber":2,"parameterNumberName":"U-component_of_WINDS"},"data":[0,0,0,0,0,0,0,0,0,0,0,0,0,0,0,0,0,0,0,0,0,0,0,0,0,0,0,0,0,0,0,0,0,0,0,0,0,0,0,0,0,0,0,0,0,0,0,0,0,0,0,0,0,0,0,0,0,0,2.7358,2.7359,0,2.7488,2.7489,2.749,2.7469,2.7466,2.7464,2.7462,2.7595,2.7601,2.7606,0,0,0,0,0,0,0,0,0,0,0,0,0,2.709,2.7095,2.7358,2.736,2.7361,2.7487,2.7489,2.7491,2.7469,2.7466,2.7464,2.7461,2.7594,2.76,2.7607,0,0,0,0,0,0,0,0,0,0,0,0,0,2.7212,2.7097,2.7358,2.7365,2.7367,2.7487,2.7489,2.7491,2.747,2.7466,2.7463,2.746,2.7591,2.76,2.7608,2.7728,0,0,2.7634,2.7637,0,0,0,0,0,0,0,0,2.7205,2.7222,2.7363,2.7365,2.7368,2.7458,2.7444,2.7571,2.747,2.7431,2.7462,2.7458,2.7553,2.7564,2.7596,2.7734,2.774,2.7635,2.764,2.7643,2.7646,0,0,0,0,0,0,0,2.7197,2.7216,2.7409,2.7365,2.7368,2.7362,2.7376,2.7468,2.7509,2.7434,2.7433,2.7448,2.7553,2.7588,2.7599,2.7742,2.7634,2.7642,2.7647,2.765,2.7982,2.7985,0,0,0,0,0,0,2.7186,2.7209,2.7405,2.7413,2.7276,2.737,2.7385,2.7433,2.7508,2.7516,2.7451,2.7447,2.7575,2.7589,2.7603,2.7746,2.7643,2.7651,2.7656,2.7978,2.7982,2.7986,0,0,0,0,0,0,2.718,2.7204,2.74,2.7311,2.7335,2.7378,2.7432,2.7437,2.7471,2.7521,2.7528,2.7479,2.7573,2.7591,2.7696,2.775,2.7655,2.7663,2.7974,2.7979,2.7984,2.8033,0,0,0,0,0,0,2.7173,2.7202,2.7248,2.7312,2.734,2.7491,2.7435,2.7442,2.7486,2.7482,2.7549,2.7557,2.7572,2.7684,2.7705,2.776,2.7669,2.7969,2.7976,2.7983,2.8027,2.804,2.8051,0,0,0,0,0,2.7163,2.7258,2.7251,2.7274,2.7399,2.7494,2.751,2.7525,2.7491,2.7537,2.7568,2.7554,2.7742,2.7695,2.7718,2.7777,2.7965,2.7974,2.7982,2.8022,2.8037,2.8051,0,0,0,0,0,0,2.72,2.7266,2.7259,2.7377,2.743,2.749,2.7549,2.7542,2.7606,2.7599,2.7616,2.7631,2.7736,2.7768,2.7714,2.7895,2.7848,2.7862,2.787,2.7886,2.7897,2.7886,2.7676,0,0,0,0,0,2.7222,2.7293,2.7348,2.7447,2.7473,2.7507,2.7549,2.7556,2.7611,2.7634,2.7673,2.7727,2.7798,2.7844,2.7912,2.8032,2.8045,2.8084,2.8096,2.8106,2.8116,2.8178,2.8195,2.8014,2.8014,2.8014,0,0,2.7267,2.7313,2.7357,2.7455,2.7497,2.7569,2.7526,2.7606,2.7659,2.7646,2.7746,2.7777,2.7839,2.795,2.8002,2.798,2.8169,2.8116,2.8123,2.8129,2.8189,2.8206,2.8221,2.8019,2.8018,2.8018,0,0,2.7387,2.743,2.7515,2.7557,2.7621,2.7642,2.7663,2.7724,2.7743,2.7844,2.7834,2.7899,2.8021,2.8064,2.8102,2.8236,2.8225,2.8258,2.832,2.838,2.8394,2.8407,2.8451,2.8468,2.8269,2.827,2.827,0,2.7435,2.7545,2.756,2.764,2.7682,2.7673,2.7758,2.7798,2.7881,2.791,2.7884,2.8035,2.8077,2.8197,2.8229,2.8261,2.8283,2.825,2.8391,2.8404,2.8416,2.8459,2.8476,2.8273,2.8273,2.8272,2.8272,0,2.76,2.7676,2.7737,2.7815,2.7865,2.7948,2.7974,2.8022,2.8025,2.8048,2.815,2.8199,2.8275,2.8305,2.8309,2.8425,2.8409,2.8387,2.834,2.8436,2.8476,2.8493,2.8278,2.8277,2.8276,2.8275,0,0,2.7745,2.783,2.7852,2.7885,2.7954,2.8013,2.8094,2.8168,2.8207,2.8265,2.8332,2.8435,2.8414,2.8457,2.8466,2.852,2.8618,2.8492,2.8493,2.851,2.8746,2.8759,2.8777,2.8612,2.8616,2.8618,2.8739,0,2.7868,2.8011,2.8026,2.8153,2.8222,2.8213,2.8284,2.8333,2.8357,2.8419,2.8446,2.8517,2.8487,2.8512,2.8565,2.8595,2.8665,2.8587,2.8673,2.8675,2.8654,2.8799,2.8814,2.8925,2.8755,2.8758,2.876,0,2.8031,2.8091,2.8225,2.8281,2.831,2.8373,2.844,2.85,2.8555,2.8569,2.8616,2.8617,2.87,2.8651,2.8764,2.871,2.8746,2.8766,2.8771,2.8777,2.8721,2.8805,2.8962,2.8977,2.8785,2.8783,2.8782,0,2.8119,2.8234,2.8327,2.8358,2.8427,2.847,2.8501,2.8553,2.8595,2.8655,2.8682,2.8751,2.8787,2.884,2.8859,2.8823,2.8969,2.8923,2.8981,2.898,2.901,2.9007,2.9171,2.9039,2.9039,2.9039,2.9038,0,2.8253,2.8334,2.8367,2.8425,2.8515,2.8531,2.862,2.8648,2.8694,2.8756,2.8755,2.8813,2.8836,2.8898,2.8914,2.9002,2.902,2.9032,2.9034,2.903,2.9028,2.9052,2.9043,2.9043,2.9042,2.9041,2.904,0,2.8365,2.8391,2.8492,2.8549,2.8565,2.8628,2.8676,2.8731,2.8754,2.8833,2.8852,2.8889,2.8961,2.8986,2.9074,2.9085,2.9187,2.9185,2.9167,2.9167,2.9222,2.9215,2.9404,2.9428,2.9283,2.9285,2.9286,0,2.8447,2.8509,2.8571,2.8612,2.8644,2.8711,2.8754,2.8773,2.8817,2.8883,2.8929,2.9001,2.9059,2.9174,2.9209,2.9275,2.9273,2.9334,2.9283,2.9275,2.9269,2.9264,2.9269,2.9343,2.9344,2.9345,2.9346,0,2.8588,2.8597,2.8659,2.8725,2.8776,2.8829,2.888,2.8913,2.8939,2.8989,2.9063,2.9107,2.9196,2.9266,2.9334,2.9366,2.936,2.9363,2.9379,2.9373,2.9359,2.9364,2.919,2.9358,2.9357,2.9356,2.9355,2.9355,2.8685,2.8738,2.879,2.8858,2.8898,2.8946,2.8999,2.9028,2.909,2.9162,2.917,2.9248,2.93,2.939,2.9425,2.9486,2.9468,2.9493,2.9498,2.9503,2.9505,2.9352,2.9499,2.9498,2.9498,2.9498,2.9498,0,2.8823,2.8856,2.8918,2.8989,2.9042,2.9032,2.9088,2.9132,2.9201,2.925,2.9306,2.9389,2.9457,2.9496,2.9563,2.9604,2.9603,2.9621,2.9616,2.9623,2.9519,2.9496,2.962,2.962,2.962,2.962,2.962,2.962,2.8901,2.8989,2.9004,2.9112,2.9144,2.922,2.9252,2.9295,2.9334,2.9426,2.9482,2.9507,2.9551,2.9621,2.9682,2.9692,2.9715,2.9735,2.9742,2.9644,2.9631,2.9619,2.9597,2.9741,2.9741,2.9841,2.9842,2.9842]},{"header":{"parameterUnit":"m.s-1","parameterCategory":1,"la1":30.2991,"la2":30.254,"lo1":-89.0895,"lo2":-89.0444,"dy":0.0017,"dx":0.0017,"nx":28,"ny":28,"refTime":"2026-02-03T09:00:00:Z","depth":0,"parameterNumber":3,"parameterNumberName":"V-component_of_WINDS"},"data":[0,0,0,0,0,0,0,0,0,0,0,0,0,0,0,0,0,0,0,0,0,0,0,0,0,0,0,0,0,0,0,0,0,0,0,0,0,0,0,0,0,0,0,0,0,0,0,0,0,0,0,0,0,0,0,0,0,0,4.4082,4.4083,0,4.4161,4.4162,4.4163,4.4112,4.411,4.4107,4.4105,4.4181,4.4186,4.419,0,0,0,0,0,0,0,0,0,0,0,0,0,4.3881,4.3885,4.4082,4.4083,4.4084,4.4161,4.4162,4.4163,4.4112,4.411,4.4107,4.4104,4.418,4.4185,4.419,0,0,0,0,0,0,0,0,0,0,0,0,0,4.3965,4.3886,4.4082,4.4068,4.4068,4.4161,4.4162,4.4163,4.4113,4.4109,4.4106,4.4103,4.4178,4.4185,4.4191,4.4301,0,0,4.421,4.4213,0,0,0,0,0,0,0,0,4.396,4.3972,4.4069,4.4069,4.4069,4.4123,4.4119,4.4209,4.4114,4.4096,4.4105,4.4101,4.4165,4.4172,4.4194,4.4304,4.4307,4.4211,4.4215,4.4217,4.4219,0,0,0,0,0,0,0,4.3954,4.3968,4.4113,4.407,4.407,4.4056,4.4064,4.4136,4.4149,4.4097,4.4093,4.4104,4.4164,4.4188,4.4196,4.4309,4.4211,4.4216,4.422,4.4223,4.4509,4.4512,0,0,0,0,0,0,4.395,4.3964,4.411,4.4115,4.4005,4.4062,4.4071,4.4109,4.4148,4.415,4.4107,4.4101,4.4179,4.4188,4.4198,4.4327,4.4217,4.4223,4.4227,4.4505,4.4509,4.4514,0,0,0,0,0,0,4.3946,4.3964,4.4107,4.4039,4.4056,4.407,4.4112,4.4113,4.4137,4.4155,4.4157,4.413,4.4177,4.4189,4.4275,4.4329,4.4226,4.4232,4.45,4.4506,4.4512,4.4586,0,0,0,0,0,0,4.3941,4.3963,4.4006,4.404,4.406,4.4185,4.4116,4.4117,4.4149,4.4142,4.4177,4.418,4.4175,4.4266,4.4281,4.4336,4.4237,4.4496,4.4503,4.451,4.4579,4.4594,4.4606,0,0,0,0,0,4.3934,4.4024,4.4009,4.4027,4.4115,4.4188,4.4199,4.4193,4.4153,4.4196,4.4207,4.4179,4.4321,4.4275,4.4292,4.4349,4.4492,4.4501,4.4509,4.4573,4.4591,4.4606,0,0,0,0,0,0,4.3994,4.4028,4.4012,4.4116,4.415,4.418,4.4233,4.4213,4.4258,4.425,4.4239,4.4247,4.4336,4.4351,4.43,4.4455,4.44,4.4412,4.4442,4.446,4.4473,4.4466,4.4242,0,0,0,0,0,4.402,4.4079,4.4104,4.4194,4.4212,4.422,4.4251,4.4244,4.4278,4.4291,4.4309,4.4342,4.4393,4.4428,4.4476,4.4581,4.4586,4.4629,4.4642,4.4653,4.4664,4.4717,4.4735,4.4542,4.4542,4.4541,0,0,4.4073,4.4099,4.4136,4.4206,4.4232,4.429,4.4232,4.4297,4.434,4.4301,4.4382,4.4397,4.4432,4.4527,4.457,4.4542,4.4718,4.4664,4.4673,4.4677,4.4728,4.4746,4.4762,4.4547,4.4546,4.4545,0,0,4.42,4.4227,4.4303,4.4329,4.4369,4.4373,4.4391,4.4424,4.4432,4.4515,4.4486,4.4535,4.4626,4.4651,4.4676,4.4811,4.4785,4.4827,4.4898,4.495,4.4965,4.4978,4.5024,4.504,4.4837,4.4837,4.4838,0,4.426,4.435,4.4344,4.4411,4.4441,4.441,4.4485,4.451,4.4563,4.4584,4.4553,4.4664,4.4686,4.4785,4.4817,4.484,4.4858,4.4822,4.4964,4.4977,4.4989,4.5032,4.505,4.4842,4.4842,4.4841,4.4841,0,4.4421,4.4483,4.4539,4.4592,4.4628,4.4699,4.4702,4.4739,4.4728,4.4735,4.4818,4.4843,4.4895,4.4918,4.4908,4.5015,4.4997,4.4965,4.4909,4.5013,4.5052,4.5069,4.4849,4.4847,4.4846,4.4845,0,0,4.4587,4.4635,4.4656,4.4678,4.4719,4.4765,4.4834,4.4886,4.4917,4.4954,4.5009,4.5085,4.5056,4.5084,4.5076,4.5122,4.5224,4.5084,4.5085,4.5107,4.534,4.5362,4.5381,4.5208,4.5211,4.5213,4.5336,0,4.4714,4.4835,4.4831,4.4942,4.4997,4.4968,4.5027,4.5057,4.5065,4.5111,4.512,4.5173,4.5131,4.5148,4.5192,4.5202,4.527,4.5193,4.5256,4.5258,4.5246,4.5402,4.5426,4.5541,4.5352,4.5354,4.5356,0,4.4878,4.4922,4.5039,4.5069,4.5092,4.5146,4.5191,4.5237,4.527,4.5272,4.5303,4.5287,4.5354,4.5297,4.5386,4.5334,4.536,4.5368,4.5372,4.5376,4.5312,4.5408,4.5577,4.5593,4.5382,4.538,4.5378,0,4.4984,4.5072,4.5153,4.5173,4.5211,4.5249,4.5266,4.5295,4.5326,4.5366,4.5385,4.5432,4.5457,4.5492,4.5489,4.5448,4.5578,4.5522,4.558,4.558,4.5607,4.5605,4.578,4.5628,4.5627,4.5627,4.5627,0,4.5125,4.5197,4.5201,4.525,4.5329,4.5323,4.54,4.5413,4.5439,4.5489,4.5466,4.5513,4.5506,4.5552,4.555,4.5623,4.5635,4.5636,4.5634,4.5637,4.5637,4.5652,4.5643,4.5632,4.5631,4.563,4.5629,0,4.5256,4.5262,4.5348,4.5377,4.5386,4.5442,4.5466,4.5511,4.5518,4.558,4.5594,4.5603,4.5656,4.5657,4.5717,4.5715,4.5803,4.5794,4.5793,4.579,4.5846,4.584,4.6036,4.606,4.5894,4.5896,4.5897,0,4.5345,4.5399,4.5434,4.5467,4.5486,4.5539,4.557,4.5565,4.5598,4.5638,4.5678,4.5729,4.577,4.5855,4.5865,4.5911,4.59,4.5966,4.5906,4.5907,4.5898,4.5893,4.5897,4.5976,4.5978,4.598,4.5981,0,4.55,4.5499,4.5546,4.5594,4.5632,4.5669,4.5703,4.573,4.5729,4.5767,4.5821,4.5852,4.5914,4.5963,4.6007,4.6022,4.6,4.6,4.6015,4.6017,4.6013,4.6013,4.5821,4.5995,4.5993,4.5992,4.5992,4.5991,4.561,4.5656,4.5688,4.574,4.5765,4.5797,4.5841,4.5852,4.5898,4.5948,4.5942,4.6002,4.603,4.6087,4.6106,4.6151,4.6128,4.615,4.6156,4.6161,4.6166,4.6008,4.6159,4.6159,4.6158,4.6158,4.6158,0,4.5761,4.578,4.5828,4.5877,4.5917,4.5895,4.5931,4.5966,4.6019,4.6048,4.6088,4.6149,4.6197,4.6211,4.6257,4.629,4.6281,4.6302,4.6298,4.6301,4.6185,4.6166,4.6308,4.6308,4.6308,4.6308,4.6308,4.6308,4.5845,4.5921,4.5924,4.6012,4.6029,4.6089,4.6111,4.6139,4.6162,4.6231,4.6271,4.6281,4.6303,4.635,4.6392,4.6395,4.6411,4.6436,4.6434,4.6325,4.631,4.6295,4.6277,4.644,4.644,4.6546,4.6547,4.6547]}]]